[[{"header":{"parameterUnit":"m.s-1","parameterCategory":1,"la1":30.2991,"la2":30.254,"lo1":-89.0895,"lo2":-89.0444,"dy":0.0017,"dx":0.0017,"nx":28,"ny":28,"refTime":"2024-05-19T03:00:00:Z","depth":0,"parameterNumber":2,"parameterNumberName":"U-component_of_WINDS"},"data":[0,0,0,0,0,0,0,0,0,0,0,0,0,0,0,0,0,0,0,0,0,0,0,0,0,0,0,0,0,0,0,0,0,0,0,0,0,0,0,0,0,0,0,0,0,0,0,0,0,0,0,0,0,0,0,0,0,0,-0.2432,-0.2432,0,-0.2346,-0.2345,-0.2344,-0.229,-0.229,-0.2289,-0.2289,-0.2201,-0.2199,-0.2197,0,0,0,0,0,0,0,0,0,0,0,0,0,-0.2551,-0.2549,-0.2433,-0.2431,-0.243,-0.2346,-0.2345,-0.2344,-0.229,-0.229,-0.2289,-0.2289,-0.2201,-0.2199,-0.2197,0,0,0,0,0,0,0,0,0,0,0,0,0,-0.2486,-0.2548,-0.2433,-0.2393,-0.2389,-0.2347,-0.2345,-0.2344,-0.229,-0.229,-0.2289,-0.2289,-0.2202,-0.2199,-0.2196,-0.2186,0,0,-0.2187,-0.2185,0,0,0,0,0,0,0,0,-0.2489,-0.2481,-0.24,-0.2396,-0.2391,-0.2328,-0.2354,-0.2291,-0.229,-0.2328,-0.2289,-0.2289,-0.2244,-0.2237,-0.2222,-0.2182,-0.2179,-0.2187,-0.2185,-0.2183,-0.2182,0,0,0,0,0,0,0,-0.2494,-0.2485,-0.2398,-0.2399,-0.2393,-0.238,-0.237,-0.2342,-0.2289,-0.2324,-0.232,-0.2311,-0.2241,-0.2225,-0.2219,-0.2177,-0.2187,-0.2184,-0.2182,-0.2181,-0.2125,-0.2126,0,0,0,0,0,0,-0.2505,-0.2489,-0.2401,-0.2396,-0.244,-0.2378,-0.2367,-0.2349,-0.2289,-0.228,-0.2311,-0.2308,-0.2231,-0.2223,-0.2216,-0.2201,-0.2183,-0.218,-0.2179,-0.2125,-0.2125,-0.2126,0,0,0,0,0,0,-0.2507,-0.2497,-0.2405,-0.2441,-0.2428,-0.2377,-0.2357,-0.2347,-0.2331,-0.2279,-0.227,-0.2305,-0.223,-0.2221,-0.2194,-0.2197,-0.2179,-0.2176,-0.2125,-0.2125,-0.2126,-0.2171,0,0,0,0,0,0,-0.2511,-0.2499,-0.2494,-0.2441,-0.2427,-0.2384,-0.2357,-0.2346,-0.2326,-0.2322,-0.2271,-0.2262,-0.2229,-0.2199,-0.2191,-0.2193,-0.2174,-0.2124,-0.2125,-0.2126,-0.2169,-0.2173,-0.2176,0,0,0,0,0,-0.2515,-0.251,-0.2494,-0.2484,-0.242,-0.2385,-0.2376,-0.2338,-0.2327,-0.2322,-0.2289,-0.2263,-0.2198,-0.2197,-0.2188,-0.2188,-0.2124,-0.2125,-0.2125,-0.2167,-0.2172,-0.2176,0,0,0,0,0,0,-0.2565,-0.2503,-0.2484,-0.2462,-0.2429,-0.2375,-0.2368,-0.2344,-0.2314,-0.2311,-0.2265,-0.2254,-0.2233,-0.2208,-0.2207,-0.2175,-0.2158,-0.2157,-0.2193,-0.2197,-0.2201,-0.2207,-0.2171,0,0,0,0,0,-0.2574,-0.255,-0.2496,-0.2482,-0.2466,-0.242,-0.2403,-0.2377,-0.2341,-0.2327,-0.2291,-0.2258,-0.2229,-0.2212,-0.2183,-0.2165,-0.2153,-0.216,-0.2164,-0.2167,-0.2167,-0.2156,-0.2159,-0.2129,-0.2129,-0.2129,0,0,-0.2591,-0.2554,-0.2541,-0.2491,-0.2462,-0.2439,-0.2409,-0.2385,-0.2368,-0.2323,-0.2296,-0.2269,-0.2228,-0.2206,-0.2195,-0.2185,-0.2173,-0.2169,-0.2172,-0.2169,-0.2157,-0.216,-0.2163,-0.2129,-0.2129,-0.2129,0,0,-0.261,-0.2579,-0.2564,-0.2536,-0.2493,-0.2462,-0.2459,-0.2408,-0.2389,-0.2361,-0.2327,-0.2306,-0.2258,-0.223,-0.221,-0.2219,-0.2195,-0.2211,-0.223,-0.222,-0.2222,-0.2224,-0.2228,-0.2229,-0.2211,-0.2211,-0.2211,0,-0.2636,-0.26,-0.2559,-0.2537,-0.2516,-0.2475,-0.2459,-0.2434,-0.2384,-0.237,-0.236,-0.2299,-0.2269,-0.224,-0.2242,-0.2227,-0.2221,-0.2216,-0.2225,-0.2227,-0.2228,-0.2231,-0.2232,-0.2213,-0.2213,-0.2212,-0.2212,0,-0.2635,-0.261,-0.2603,-0.2555,-0.2533,-0.2515,-0.2472,-0.2454,-0.243,-0.2401,-0.2373,-0.2335,-0.2298,-0.2289,-0.2265,-0.2257,-0.2252,-0.2234,-0.2215,-0.2234,-0.2236,-0.2236,-0.2216,-0.2215,-0.2215,-0.2214,0,0,-0.2683,-0.2613,-0.2611,-0.259,-0.2539,-0.2519,-0.2499,-0.2462,-0.2449,-0.2415,-0.2397,-0.2358,-0.2341,-0.2318,-0.2291,-0.2281,-0.2291,-0.2264,-0.2263,-0.2271,-0.228,-0.2295,-0.2297,-0.2275,-0.2275,-0.2275,-0.2284,0,-0.2695,-0.2656,-0.2619,-0.2594,-0.2571,-0.2531,-0.2513,-0.2481,-0.2453,-0.2429,-0.2398,-0.2371,-0.235,-0.2336,-0.2326,-0.2293,-0.2293,-0.2291,-0.2258,-0.2257,-0.227,-0.2297,-0.2312,-0.2323,-0.2284,-0.2284,-0.2284,0,-0.2704,-0.2673,-0.2645,-0.2597,-0.2586,-0.257,-0.2534,-0.2512,-0.2474,-0.2454,-0.2429,-0.24,-0.2376,-0.2361,-0.2328,-0.2328,-0.2312,-0.2294,-0.2293,-0.2289,-0.2272,-0.2294,-0.2325,-0.2327,-0.2285,-0.2285,-0.2285,0,-0.2743,-0.2693,-0.2671,-0.2653,-0.2596,-0.2586,-0.2562,-0.2524,-0.2504,-0.2473,-0.246,-0.2426,-0.2407,-0.2382,-0.2345,-0.2336,-0.2316,-0.2297,-0.2299,-0.2301,-0.2297,-0.2298,-0.2326,-0.2287,-0.2287,-0.2287,-0.2287,0,-0.276,-0.2745,-0.2687,-0.2673,-0.2655,-0.2613,-0.2596,-0.2568,-0.2534,-0.2515,-0.2478,-0.246,-0.2412,-0.2388,-0.2359,-0.2337,-0.2328,-0.2312,-0.2304,-0.2315,-0.2318,-0.2305,-0.2303,-0.2287,-0.2287,-0.2287,-0.2287,0,-0.2801,-0.2761,-0.2734,-0.2682,-0.2669,-0.2658,-0.2613,-0.2599,-0.2568,-0.2544,-0.2536,-0.2489,-0.2459,-0.2419,-0.2377,-0.2357,-0.2339,-0.2327,-0.2352,-0.2347,-0.2352,-0.2353,-0.2374,-0.2374,-0.2334,-0.2335,-0.2335,0,-0.2815,-0.2802,-0.2749,-0.2733,-0.271,-0.2685,-0.2665,-0.2622,-0.2603,-0.2559,-0.2549,-0.2517,-0.2489,-0.2443,-0.2405,-0.2373,-0.236,-0.237,-0.2355,-0.2367,-0.2361,-0.2362,-0.2361,-0.2373,-0.2374,-0.2375,-0.2375,0,-0.2844,-0.2825,-0.2798,-0.2764,-0.2741,-0.2712,-0.2681,-0.267,-0.2621,-0.2601,-0.257,-0.2549,-0.2506,-0.2474,-0.2437,-0.2412,-0.2386,-0.238,-0.2379,-0.239,-0.2406,-0.2398,-0.2362,-0.238,-0.2379,-0.2379,-0.2379,-0.2378,-0.2872,-0.2859,-0.282,-0.2791,-0.2763,-0.2735,-0.2719,-0.2686,-0.266,-0.2622,-0.2598,-0.2568,-0.2531,-0.2478,-0.2454,-0.243,-0.242,-0.2418,-0.2418,-0.2418,-0.2422,-0.2409,-0.2423,-0.2423,-0.2423,-0.2423,-0.2423,0,-0.29,-0.2873,-0.2846,-0.2804,-0.2781,-0.2758,-0.2723,-0.2705,-0.268,-0.2647,-0.262,-0.2584,-0.2553,-0.2513,-0.2479,-0.2468,-0.2455,-0.2461,-0.2462,-0.2456,-0.2433,-0.2438,-0.2472,-0.2472,-0.2472,-0.2472,-0.2472,-0.2472,-0.2912,-0.2889,-0.2866,-0.2829,-0.2801,-0.2772,-0.2754,-0.2728,-0.2701,-0.2664,-0.2638,-0.2612,-0.2576,-0.2539,-0.251,-0.2498,-0.2488,-0.2497,-0.2483,-0.2462,-0.2458,-0.2454,-0.2458,-0.2495,-0.2495,-0.2508,-0.2508,-0.2508]},{"header":{"parameterUnit":"m.s-1","parameterCategory":1,"la1":30.2991,"la2":30.254,"lo1":-89.0895,"lo2":-89.0444,"dy":0.0017,"dx":0.0017,"nx":28,"ny":28,"refTime":"2024-05-19T03:00:00:Z","depth":0,"parameterNumber":3,"parameterNumberName":"V-component_of_WINDS"},"data":[0,0,0,0,0,0,0,0,0,0,0,0,0,0,0,0,0,0,0,0,0,0,0,0,0,0,0,0,0,0,0,0,0,0,0,0,0,0,0,0,0,0,0,0,0,0,0,0,0,0,0,0,0,0,0,0,0,0,2.977,2.9769,0,2.9752,2.9752,2.9752,2.973,2.973,2.9729,2.9729,2.971,2.9709,2.9709,0,0,0,0,0,0,0,0,0,0,0,0,0,2.9784,2.9783,2.977,2.9769,2.9769,2.9752,2.9752,2.9752,2.973,2.973,2.9729,2.9729,2.971,2.9709,2.9709,0,0,0,0,0,0,0,0,0,0,0,0,0,2.9773,2.9783,2.977,2.9756,2.9755,2.9752,2.9752,2.9752,2.973,2.973,2.9729,2.9729,2.971,2.971,2.9709,2.9717,0,0,2.9708,2.9708,0,0,0,0,0,0,0,0,2.9774,2.9772,2.9759,2.9757,2.9756,2.9743,2.975,2.974,2.973,2.974,2.9729,2.9729,2.9721,2.972,2.9717,2.9716,2.9716,2.9708,2.9708,2.9708,2.9708,0,0,0,0,0,0,0,2.9774,2.9773,2.9763,2.9758,2.9757,2.9751,2.9749,2.9748,2.9733,2.9739,2.9737,2.9735,2.972,2.9718,2.9717,2.9715,2.9708,2.9708,2.9708,2.9708,2.9721,2.9722,0,0,0,0,0,0,2.9777,2.9774,2.9763,2.9762,2.9764,2.9751,2.9749,2.9747,2.9733,2.9731,2.9736,2.9735,2.9719,2.9717,2.9716,2.9725,2.9708,2.9708,2.9707,2.9721,2.9721,2.9722,0,0,0,0,0,0,2.9778,2.9776,2.9764,2.9768,2.9765,2.9752,2.975,2.9747,2.9745,2.9731,2.9728,2.9736,2.9718,2.9717,2.9718,2.9724,2.9707,2.9707,2.972,2.9721,2.9722,2.9744,0,0,0,0,0,0,2.9778,2.9777,2.978,2.9768,2.9765,2.9766,2.975,2.9747,2.9745,2.9743,2.9731,2.9728,2.9718,2.9718,2.9717,2.9724,2.9707,2.9719,2.972,2.9721,2.9742,2.9745,2.9748,0,0,0,0,0,2.9779,2.9786,2.978,2.9779,2.9769,2.9766,2.9765,2.9753,2.9745,2.9748,2.974,2.9729,2.9724,2.9718,2.9717,2.9724,2.9719,2.972,2.9721,2.9741,2.9745,2.9748,0,0,0,0,0,0,2.9799,2.9784,2.9777,2.9781,2.9775,2.9763,2.9766,2.9757,2.9752,2.9751,2.9736,2.9733,2.9736,2.973,2.9724,2.9731,2.972,2.9721,2.9735,2.9739,2.9741,2.9743,2.9707,0,0,0,0,0,2.9804,2.9803,2.979,2.9795,2.9792,2.978,2.9778,2.977,2.9763,2.976,2.9751,2.9744,2.9741,2.9739,2.9736,2.9741,2.9739,2.9745,2.9748,2.975,2.9751,2.9755,2.9758,2.9726,2.9726,2.9726,0,0,2.9814,2.9806,2.9806,2.9799,2.9793,2.9793,2.9778,2.9778,2.9777,2.9759,2.976,2.9754,2.9745,2.9749,2.975,2.9744,2.976,2.9752,2.9754,2.9754,2.9756,2.9759,2.9762,2.9727,2.9727,2.9726,0,0,2.9832,2.9826,2.983,2.9824,2.9816,2.9808,2.9809,2.9798,2.9793,2.9794,2.9781,2.978,2.9775,2.977,2.9766,2.9784,2.9774,2.9783,2.9797,2.9801,2.9803,2.9805,2.9812,2.9815,2.9784,2.9784,2.9784,0,2.9845,2.9845,2.9832,2.9834,2.9831,2.9816,2.9819,2.9815,2.9806,2.9804,2.9798,2.9792,2.9785,2.9788,2.9792,2.979,2.9791,2.9784,2.9804,2.9806,2.9808,2.9814,2.9817,2.9786,2.9785,2.9785,2.9785,0,2.9862,2.9861,2.9865,2.9858,2.9856,2.9858,2.9846,2.9845,2.9837,2.983,2.9831,2.9823,2.9817,2.9817,2.9809,2.9819,2.9816,2.9807,2.9795,2.9812,2.9818,2.982,2.9787,2.9787,2.9787,2.9786,0,0,2.9892,2.9878,2.988,2.9877,2.9867,2.9867,2.9868,2.9864,2.9864,2.9858,2.986,2.9857,2.9849,2.9845,2.9836,2.9839,2.9854,2.983,2.9829,2.9835,2.9866,2.9873,2.9876,2.9848,2.9848,2.9848,2.9867,0,2.9909,2.9911,2.9901,2.9906,2.9906,2.9892,2.9894,2.9888,2.9882,2.988,2.9873,2.9871,2.986,2.9858,2.986,2.9852,2.986,2.985,2.9849,2.9849,2.9852,2.9879,2.9886,2.9903,2.9869,2.9869,2.9869,0,2.9928,2.9925,2.9931,2.9922,2.9921,2.9923,2.9919,2.9918,2.9911,2.9906,2.9903,2.9893,2.9894,2.9883,2.9884,2.9878,2.9877,2.9873,2.9873,2.9873,2.986,2.9879,2.9909,2.9911,2.9873,2.9872,2.9872,0,2.995,2.9947,2.995,2.9948,2.9937,2.9939,2.9935,2.9927,2.9926,2.9922,2.9921,2.9917,2.9915,2.9912,2.9902,2.9894,2.9905,2.9893,2.9901,2.9901,2.9904,2.9904,2.9934,2.9903,2.9903,2.9903,2.9902,0,2.997,2.9975,2.996,2.9962,2.9967,2.9955,2.9959,2.9953,2.9947,2.9948,2.9936,2.9936,2.9922,2.9922,2.9913,2.9916,2.9915,2.9911,2.9909,2.9913,2.9913,2.9912,2.991,2.9903,2.9903,2.9903,2.9903,0,2.9996,2.9986,2.9989,2.9979,2.9977,2.998,2.9972,2.9973,2.9966,2.9967,2.9967,2.9955,2.9954,2.9943,2.9939,2.9934,2.994,2.9935,2.9943,2.9941,2.995,2.995,2.998,2.9984,2.9951,2.9951,2.9951,0,3.0009,3.0012,3.0003,3.0003,2.9999,2.9999,2.9998,2.9986,2.9985,2.9978,2.9981,2.9979,2.9976,2.9975,2.9966,2.9963,2.9959,2.997,2.9958,2.9962,2.9959,2.9959,2.996,2.9972,2.9972,2.9973,2.9973,0,3.0035,3.003,3.0029,3.0026,3.0025,3.0022,3.0018,3.0019,3.0006,3.0005,3.0004,3.0003,2.9999,2.9997,2.9993,2.9988,2.9979,2.9977,2.9979,2.9982,2.9987,2.9985,2.995,2.9976,2.9976,2.9976,2.9976,2.9975,3.0055,3.0057,3.0051,3.005,3.0046,3.0044,3.0045,3.0038,3.0037,3.0034,3.0027,3.0027,3.0021,3.0015,3.0011,3.0011,3.0005,3.0008,3.0008,3.0009,3.0011,2.9987,3.001,3.001,3.001,3.001,3.001,0,3.008,3.0075,3.0075,3.007,3.007,3.0061,3.0057,3.0057,3.0058,3.0053,3.0051,3.0051,3.0049,3.0041,3.0038,3.004,3.0035,3.004,3.0039,3.0039,3.0016,3.0015,3.0043,3.0043,3.0043,3.0043,3.0043,3.0043,3.0093,3.0097,3.0091,3.0093,3.0089,3.0089,3.0088,3.0085,3.0082,3.0081,3.008,3.0075,3.0069,3.0066,3.0065,3.0062,3.0062,3.0068,3.0064,3.0043,3.004,3.0037,3.0036,3.0068,3.0068,3.0086,3.0086,3.0086]}]]